This demonstration page uses our WeatherBlox Daily Observations layout. Learn more.

Left ArrowRight Arrow

Hourly Observations for March 19, 2020

Temp ( °F °C ) Dew Point ( °F °C ) Humidity (%) Winds ( mph kmh ) Pressure ( in mb ) Visibility ( mi km ) Precip ( " mm )
12:56 am 00:56 Cloudy with Light Rain 47 8.3 46 7.8 97 97 E 10 17 29.84 1010 1 1 0.00 0.00
1:56 am 01:56 Cloudy with Light Rain 47 8.3 47 8.3 100 100 E 14 22 29.80 1009 1 1 0.00 0.00
2:52 am 02:52 Cloudy with Light Rain 46 8 46 8 100 100 E 12 19 29.80 1009 0 0 0.00 0.00
2:56 am 02:56 Cloudy with Light Rain 47 8.3 46 7.8 97 97 E 12 19 29.78 1009 0 0 0.00 0.00
3:56 am 03:56 Cloudy with Light Rain 47 8.3 46 7.8 97 97 E 9 15 29.73 1007 0 0 0.00 0.00
4:56 am 04:56 Cloudy with Light Rain 47 8.3 47 8.3 100 100 ENE 7 11 29.72 1006 0 0 0.01 0.25
5:29 am 05:29 Cloudy with Light Rain 46 8 46 8 100 100 ENE 10 17 29.72 1006 1 1 0.00 0.00
5:56 am 05:56 Cloudy with Light Rain 47 8.3 47 8.3 100 100 NNE 14 22 29.69 1006 1 1 0.00 0.00
6:10 am 06:10 Cloudy with Light Rain 46 8 46 8 100 100 N 13 20 29.70 1006 1 2 0.02 0.51
6:21 am 06:21 Cloudy with Light Rain 46 8 46 8 100 100 NNE 14 22 29.70 1006 2 2 0.03 0.76
6:30 am 06:30 Cloudy with Light Rain 46 8 46 8 100 100 NNE 12 19 29.71 1006 2 3 0.03 0.76
6:45 am 06:45 Cloudy with Mist and Fog 46 8 46 8 100 100 NNE 10 17 29.71 1006 3 5 0.03 0.76
6:56 am 06:56 Cloudy with Mist and Fog 46 7.8 46 7.8 100 100 NNE 12 19 29.70 1006 4 6 0.03 0.76
7:56 am 07:56 Cloudy with Light Rain 46 7.8 46 7.8 100 100 NE 12 19 29.68 1005 4 6 0.00 0.00
8:56 am 08:56 Cloudy with Mist and Fog 46 7.8 46 7.8 100 100 NE 9 15 29.68 1005 6 10 0.01 0.25
9:38 am 09:38 Cloudy with Mist and Fog 46 8 46 8 100 100 ENE 13 20 29.69 1005 2 3 0.00 0.00
9:51 am 09:51 Cloudy with Mist and Fog 48 9 46 8 94 94 ENE 14 22 29.68 1005 2 2 0.00 0.00
9:56 am 09:56 Cloudy with Mist and Fog 48 8.9 47 8.3 96 96 ENE 12 19 29.67 1005 2 2 0.00 0.00
10:15 am 10:15 Cloudy with Mist and Fog 46 8 46 8 100 100 ENE 13 20 29.69 1005 1 1 0.00 0.00
10:27 am 10:27 Cloudy with Light Rain 48 9 46 8 94 94 NE 10 17 29.67 1005 1 1 0.00 0.00
10:56 am 10:56 Cloudy with Light Rain 48 8.9 48 8.9 100 100 NE 14 22 29.66 1004 1 1 0.00 0.00
11:44 am 11:44 Cloudy with Light Rain 46 8 46 8 100 100 NNE 18 30 29.68 1005 1 2 0.00 0.00
11:53 am 11:53 Cloudy with Mist and Fog 46 8 46 8 100 100 NNE 20 31 29.67 1005 2 2 0.00 0.00
11:56 am 11:56 Cloudy with Mist and Fog 47 8.3 46 7.8 97 97 NNE 20 31 29.66 1005 2 3 0.00 0.00
12:03 pm 12:03 Cloudy with Mist and Fog 46 8 46 8 100 100 NNE 18 30 29.68 1005 3 4 0.00 0.00
12:13 pm 12:13 Cloudy with Light Rain 46 8 46 8 100 100 NNE 21 33 29.68 1005 4 6 0.00 0.00
12:21 pm 12:21 Cloudy with Mist and Fog 46 8 46 8 100 100 NNE 17 28 29.68 1005 4 6 0.00 0.00
12:56 pm 12:56 Cloudy with Mist and Fog 47 8.3 46 7.8 97 97 NNE 20 31 29.67 1005 4 6 0.00 0.00
1:56 pm 13:56 Cloudy with Light Rain 46 7.8 45 7.2 96 96 NE 24 39 29.66 1005 8 13 0.00 0.00
2:13 pm 14:13 Cloudy with Light Rain 46 8 45 7 93 93 NE 18 30 29.68 1005 10 16 0.00 0.00
2:56 pm 14:56 Cloudy with Nearby Thunderstorms 46 7.8 45 7.2 96 96 NNE 26 43 29.62 1003 4 6 0.00 0.00
3:56 pm 15:56 Cloudy with Nearby Thunderstorms 45 7.2 44 6.7 97 97 NNE 28 44 29.66 1004 10 16 0.01 0.25
4:13 pm 16:13 Cloudy 45 7 45 7 100 100 NNE 29 46 29.68 1005 10 16 0.00 0.00
4:56 pm 16:56 Cloudy 44 6.7 42 5.6 93 93 NNE 30 48 29.70 1006 10 16 0.00 0.00
5:56 pm 17:56 Cloudy 38 3.3 35 1.7 89 89 N 30 48 29.79 1009 10 16 0.00 0.00
6:41 pm 18:41 Cloudy 36 2 32 0 87 87 N 35 56 29.88 1012 10 16 0.00 0.00
6:56 pm 18:56 Cloudy 34 1.1 30 -1.1 85 85 N 30 48 29.86 1011 10 16 0.00 0.00
7:56 pm 19:56 Windy with Snow Likely 31 -0.6 28 -2.2 89 89 N 35 56 29.95 1014 5 8 0.00 0.00
8:56 pm 20:56 Windy with Snow Likely 29 -1.7 27 -2.8 92 92 N 36 57 30.01 1016 4 6 0.00 0.00
9:52 pm 21:52 Windy with Snow Likely 27 -3 25 -4 93 93 N 37 59 30.15 1021 5 8 0.00 0.00
9:56 pm 21:56 Windy with Snow Likely 27 -2.8 24 -4.4 89 89 N 30 48 30.08 1019 5 8 0.00 0.00
10:08 pm 22:08 Windy with Snow Likely 27 -3 25 -4 93 93 N 35 56 30.17 1022 6 10 0.00 0.00
10:21 pm 22:21 Very Windy with Snow Likely 27 -3 23 -5 86 86 N 38 61 30.19 1022 7 11 0.00 0.00
10:27 pm 22:27 Windy with Snow Likely 27 -3 23 -5 86 86 N 32 52 30.20 1023 6 10 0.00 0.00
10:46 pm 22:46 Windy with Snow Likely 27 -3 23 -5 86 86 N 28 44 30.22 1023 3 4 0.00 0.00
10:56 pm 22:56 Windy with Snow Likely 26 -3.3 23 -5 88 88 N 32 52 30.14 1021 2 3 0.00 0.00
11:00 pm 23:00 Windy with Snow Likely 27 -3 23 -5 86 86 N 30 48 30.23 1024 2 3 0.00 0.00
11:32 pm 23:32 Windy with Snow Likely 25 -4 23 -5 93 93 N 30 48 30.28 1025 3 4 0.00 0.00
11:56 pm 23:56 Windy with Snow Likely 25 -3.9 23 -5 92 92 N 32 52 30.22 1023 3 4 0.00 0.00

Powered by AerisWeather